Regional Weather Roundup
Issued by NWS

Home | Current Version | Previous Version | Text Only | Print | Product List | Glossary On
Versions: 1 2 3 4 5 6 7 8 9 10 11 12 13 14 15 16 17 18 19 20 21 22 23 24 25 26 27 28 29 30 31 32 33 34 35 36 37 38 39 40 41 42 43 44 45 46 47 48 49 50
000
ASPQ40 PGUM 120812
RWRPQ
WEATHER ROUNDUP FOR THE MARIANAS AND MICRONESIA
NATIONAL WEATHER SERVICE TIYAN GU
600 PM CHST SAT JUL 12 2014

GUZ001>004-120900-
MARIANA ISLANDS-

CITY           SKY/WX    TMP DP  RH WIND       PRES   REMARKS
GUAM AIRPORT   MOSUNNY   82  75  78 S7        29.78S
ANDERSEN AFB   SUNNY     81  73  78 S10       29.78R
ROTA AIRPORT   PTSUNNY   81  75  83 S8        29.79R
TINIAN AP      PTSUNNY   82  75  78 SE8       29.77R
SAIPAN AP      MOSUNNY   84  75  74 SE12      29.79S HX  92

$$

PMZ161-120900-
REPUBLIC OF PALAU-

CITY           SKY/WX    TMP DP  RH WIND       PRES   REMARKS
KOROR AP       LGT RAIN  84  82  94 W9        29.80S HX 101
KOROR WSO      CLOUDY    84  77  79 SW7       29.80S HX  94

$$

PMZ171>174-120900-
FEDERATED STATES OF MICRONESIA-

CITY           SKY/WX    TMP DP  RH WIND       PRES   REMARKS
YAP AIRPORT    PTSUNNY   88  77  70 W9        29.76F HX 100
CHUUK AP       CLOUDY    84  79  84 NW8       29.78R HX  96
POHNPEI AP     NOT AVBL
POHNPEI WSO    CLOUDY    81  79  94 SE3       29.81S
KOSRAE AP      NOT AVBL

$$

PMZ181-120900-
REPUBLIC OF THE MARSHALL ISLANDS-

CITY           SKY/WX    TMP DP  RH WIND       PRES   REMARKS
KWAJALEIN AP   PTCLDY    84  72  65 NE9       29.83R
MAJURO AP      NOT AVBL
MAJURO WSO     LGT RAIN  79  77  94 W13       29.80R

$$



USA.gov is the U.S. government's official web portal to all federal, state and local government web resources and services.